Regional Weather Roundup
Issued by NWS

Home | Current Version | Previous Version | Text Only | Print | Product List | Glossary On
Versions: 1 2 3 4 5 6 7 8 9 10 11 12 13 14 15 16 17 18 19 20 21 22 23 24 25 26 27 28 29 30 31 32 33 34 35 36 37 38 39 40 41 42 43 44 45 46 47 48 49 50
000
ASUS43 KOAX 220510
RWRNE

WEATHER ROUNDUP FOR NEBRASKA
NATIONAL WEATHER SERVICE OMAHA NE
1200 AM CDT SUN OCT 22 2017

NOTES: SATELLITE DATA IS BEING USED TO AUGMENT CLOUD COVER ABOVE
       12000 FEET.
       "FAIR" INDICATES FEW OR NO CLOUDS BELOW 12,000 FEET WITH NO
       SIGNIFICANT WEATHER AND/OR OBSTRUCTIONS TO VISIBILITY.


NEZ001>004-019>022-054>056-220600-
NEBRASKA PANHANDLE

CITY           SKY/WX    TMP DP  RH WIND       PRES   REMARKS
SCOTTSBLUFF    CLEAR     36  18  48 NW9       30.07S WCI  29
ALLIANCE       CLEAR     26  19  74 W9        30.05S HAZE    WCI  17
CHADRON        CLEAR     29  13  51 W7        30.03R WCI  22
GORDON         FAIR      32  21  63 NW5       30.02R WCI  28
KIMBALL        CLEAR     38  16  41 W13       30.10F WCI  30
SIDNEY         CLEAR     36  17  46 W12       30.10F WCI  28
$$

NEZ057>060-069>072-079>082-220600-
SOUTHWEST NEBRASKA

CITY           SKY/WX    TMP DP  RH WIND       PRES   REMARKS
NORTH PLATTE   CLEAR     31  26  82 NW6       30.05F WCI  25
IMPERIAL       CLEAR     42  20  41 W10       30.07F
LEXINGTON      CLOUDY    37  29  73 W5        30.04S WCI  33
MCCOOK         CLEAR     40  25  55 W7        30.08R
OGALLALA       CLEAR     38  24  57 W8        30.06F WCI  32
$$

NEZ005>010-023>029-035>040-094-220600-
NORTH CENTRAL NEBRASKA

CITY           SKY/WX    TMP DP  RH WIND       PRES   REMARKS
VALENTINE      CLEAR     33  28  81 SW7       30.01R WCI  27
AINSWORTH      CLEAR     33  29  86 SW5       30.01F WCI  29
BROKEN BOW     CLEAR     39  27  62 CALM      30.02R
O`NEILL        CLEAR     40  32  72 W6        30.00S
ORD            CLEAR     35  32  88 CALM      30.00F
THEDFORD       CLEAR     36  28  73 CALM      30.04F
$$

NEZ041-046>049-061>064-073>077-083>087-220600-
SOUTH CENTRAL NEBRASKA

CITY           SKY/WX    TMP DP  RH WIND       PRES   REMARKS
GRAND ISLAND   PTCLDY    41  38  89 SW3       30.03R
AURORA         CLOUDY    40  37  90 W5        30.03R
HASTINGS       CLOUDY    42  36  79 CALM      30.03R
HEBRON         CLOUDY    47  42  82 W3        30.03R
HOLDREGE       CLOUDY    41  31  67 W5        30.04R
KEARNEY        PTCLDY    40  34  79 SW6       30.04R
YORK           CLOUDY    39  39 100 CALM      30.03R
$$

NEZ011>018-030>034-042>045-220600-
NORTHEAST NEBRASKA

CITY           SKY/WX    TMP DP  RH WIND       PRES   REMARKS
NORFOLK        CLEAR     39  36  89 CALM      29.98F
ALBION         CLEAR     37  34  91 CALM      30.01S
BLAIR          CLOUDY    49  41  74 CALM      29.98R
COLUMBUS       CLOUDY    40  37  89 CALM      30.01F
FREMONT        CLOUDY    46  39  76 W6        29.99S
TEKAMAH        CLOUDY    46  39  76 W6        29.98S
WAYNE          PTCLDY    37  35  91 CALM      29.98F
$$

NEZ050>053-065>068-078-088>093-220600-
SOUTHEAST NEBRASKA

CITY           SKY/WX    TMP DP  RH WIND       PRES   REMARKS
LINCOLN        MOCLDY    50  39  66 W5        30.02R
OMAHA EPPLEY   CLOUDY    52  40  63 CALM      29.99S
BEATRICE       CLOUDY    49  42  77 CALM      30.01S
FALLS CITY     CLOUDY    54  43  66 NW6       29.99S
NEBRASKA CITY  CLOUDY    52  42  67 N3        30.01R
PLATTSMOUTH    CLOUDY    51  42  72 NW3       29.99S
$$

NEZ044-045-051>053-067-220600-
OMAHA AREA

CITY           SKY/WX    TMP DP  RH WIND       PRES   REMARKS
OMAHA EPPLEY   CLOUDY    52  40  63 CALM      29.99S
BLAIR          CLOUDY    49  41  74 CALM      29.98R
FREMONT        CLOUDY    46  39  76 W6        29.99S
MILLARD        CLOUDY    52  42  70 CALM      29.99R
OFFUTT AFB     CLOUDY    50  43  77 CALM      29.98F
PLATTSMOUTH    CLOUDY    51  42  72 NW3       29.99S
WAHOO          FAIR      49  39  67 W5        29.99S
$$




USA.gov is the U.S. government's official web portal to all federal, state and local government web resources and services.